TimeMDT,TemperatureF,Dew PointF,Humidity,Sea Level PressureIn,VisibilityMPH,Wind Direction,Wind SpeedMPH,Gust SpeedMPH,PrecipitationIn,Events,Conditions,WindDirDegrees,DateUTC
12:53 AM,60.1,48.0,64,29.95,10.0,SSE,18.4,28.8,N/A,,Overcast,150,2013-05-24 06:53:00
1:53 AM,60.1,48.9,67,29.93,10.0,SSE,15.0,27.6,N/A,,Overcast,160,2013-05-24 07:53:00
2:00 AM,60.8,48.2,63,29.97,10.0,SSE,15.0,-,N/A,,Overcast,160,2013-05-24 08:00:00
2:39 AM,59.0,50.0,72,29.94,10.0,SSE,23.0,33.4,N/A,,Mostly Cloudy,160,2013-05-24 08:39:00
2:53 AM,59.0,50.0,72,29.90,10.0,SSE,23.0,32.2,N/A,,Scattered Clouds,150,2013-05-24 08:53:00
3:17 AM,59.0,50.0,72,29.94,10.0,SSE,17.3,28.8,N/A,,Overcast,150,2013-05-24 09:17:00
3:53 AM,57.9,51.1,78,29.89,10.0,South,17.3,26.5,N/A,,Overcast,170,2013-05-24 09:53:00
4:53 AM,57.9,51.1,78,29.86,10.0,South,19.6,25.3,N/A,,Overcast,170,2013-05-24 10:53:00
5:53 AM,57.9,52.0,81,29.86,10.0,South,19.6,25.3,N/A,,Overcast,170,2013-05-24 11:53:00
6:53 AM,59.0,53.1,81,29.86,10.0,South,19.6,26.5,N/A,,Overcast,170,2013-05-24 12:53:00
7:53 AM,61.0,54.0,78,29.89,10.0,South,13.8,-,N/A,,Overcast,190,2013-05-24 13:53:00
8:53 AM,64.0,55.0,73,29.86,10.0,South,27.6,38.0,N/A,,Mostly Cloudy,180,2013-05-24 14:53:00
9:00 AM,64.4,55.4,73,29.92,10.0,South,16.1,38.0,N/A,,Scattered Clouds,180,2013-05-24 15:00:00
9:53 AM,66.9,55.9,68,29.90,10.0,South,26.5,34.5,N/A,,Partly Cloudy,190,2013-05-24 15:53:00
10:53 AM,71.1,55.9,59,29.88,10.0,South,21.9,33.4,N/A,,Clear,190,2013-05-24 16:53:00
11:53 AM,75.0,57.0,53,29.86,10.0,South,20.7,26.5,N/A,,Clear,180,2013-05-24 17:53:00
12:53 PM,79.0,57.0,47,29.84,10.0,South,23.0,26.5,N/A,,Clear,170,2013-05-24 18:53:00
1:53 PM,81.0,52.0,36,29.83,10.0,Variable,3.5,-,N/A,,Clear,0,2013-05-24 19:53:00
2:53 PM,84.0,41.0,22,29.83,10.0,Variable,4.6,-,N/A,,Clear,0,2013-05-24 20:53:00
3:53 PM,84.0,30.0,14,29.82,10.0,Calm,Calm,-,N/A,,Clear,0,2013-05-24 21:53:00
4:53 PM,84.9,30.0,14,29.83,10.0,North,6.9,-,N/A,,Clear,360,2013-05-24 22:53:00
5:53 PM,81.0,54.0,39,29.83,10.0,SSE,8.1,-,N/A,,Clear,150,2013-05-24 23:53:00
6:53 PM,78.1,57.9,50,29.83,10.0,SSE,9.2,-,N/A,,Partly Cloudy,150,2013-05-25 00:53:00
7:53 PM,73.9,55.0,52,29.85,10.0,NE,10.4,17.3,N/A,,Clear,40,2013-05-25 01:53:00
8:53 PM,66.9,57.0,70,29.90,10.0,NNE,6.9,-,N/A,,Clear,30,2013-05-25 02:53:00
9:53 PM,64.9,55.9,73,29.93,10.0,NE,9.2,-,N/A,,Clear,40,2013-05-25 03:53:00
10:53 PM,61.0,55.0,81,29.92,10.0,NE,5.8,-,N/A,,Clear,50,2013-05-25 04:53:00
11:53 PM,59.0,53.1,81,29.89,10.0,East,3.5,-,N/A,,Clear,80,2013-05-25 05:53:00